| time (UTC) | temp F | wind direction | speed knots | gust knots | rain 1hr in | rain 24hr in | rain mn in | humidity % | barometer mb |
| 20260906113055 | 63 | 0 | 0.0 | 1.7 | 0.00 | 0.00 | 0.00 | 97 | 1020.4 |
| 20260906112534 | 63 | 9 | 0.0 | 0.9 | 0.00 | 0.00 | 0.00 | 97 | 1020.4 |
| 20260906112032 | 63 | 0 | 0.0 | 0.9 | 0.00 | 0.00 | 0.00 | 97 | 1020.3 |
| 20260906111556 | 62 | 0 | 0.0 | 0.0 | 0.00 | 0.00 | 0.00 | 97 | 1020.2 |
| 20260906111031 | 63 | 0 | 0.0 | 0.0 | 0.00 | 0.00 | 0.00 | 97 | 1020.1 |
| 20260906110531 | 63 | 0 | 0.0 | 0.0 | 0.00 | 0.00 | 0.00 | 97 | 1020.1 |
| 20260906105530 | 63 | 0 | 0.0 | 0.0 | 0.00 | 0.00 | 0.00 | 97 | 1019.9 |
| 20260906105032 | 63 | 0 | 0.0 | 0.9 | 0.00 | 0.00 | 0.00 | 97 | 1020.1 |
| 20260906104553 | 63 | 0 | 0.0 | 0.9 | 0.00 | 0.00 | 0.00 | 97 | 1020.2 |
| 20260906104030 | 63 | 0 | 0.0 | 0.9 | 0.00 | 0.00 | 0.00 | 97 | 1020.3 |
| 20260906103534 | 63 | 0 | 0.0 | 0.9 | 0.00 | 0.00 | 0.00 | 97 | 1020.0 |
| 20260906103102 | 63 | 0 | 0.0 | 0.9 | 0.00 | 0.00 | 0.00 | 97 | 1019.8 |
| 20260906102533 | 63 | 0 | 0.0 | 0.9 | 0.00 | 0.00 | 0.00 | 97 | 1020.0 |
| 20260906102031 | 63 | 0 | 0.0 | 0.9 | 0.00 | 0.00 | 0.00 | 97 | 1020.0 |
| 20260906101559 | 63 | 0 | 0.0 | 0.9 | 0.00 | 0.00 | 0.00 | 97 | 1020.0 |
| 20260906101029 | 63 | 0 | 0.0 | 0.0 | 0.00 | 0.00 | 0.00 | 97 | 1020.0 |
| 20260906100534 | 63 | 0 | 0.0 | 0.9 | 0.00 | 0.00 | 0.00 | 97 | 1020.0 |
| 20260906100100 | 63 | 0 | 0.0 | 0.9 | 0.00 | 0.00 | 0.00 | 97 | 1020.0 |
| 20260906095530 | 63 | 0 | 0.0 | 0.9 | 0.00 | 0.00 | 0.00 | 97 | 1019.9 |
| 20260906095030 | 63 | 0 | 0.0 | 1.7 | 0.00 | 0.00 | 0.00 | 97 | 1019.7 |
| 20260906094550 | 63 | 0 | 0.0 | 1.7 | 0.00 | 0.00 | 0.00 | 97 | 1019.6 |
| 20260906094030 | 63 | 0 | 0.0 | 0.0 | 0.00 | 0.00 | 0.00 | 97 | 1019.6 |
| 20260906093534 | 63 | 0 | 0.0 | 0.0 | 0.00 | 0.00 | 0.00 | 97 | 1019.6 |
| 20260906093050 | 63 | 0 | 0.0 | 0.0 | 0.00 | 0.00 | 0.00 | 97 | 1019.7 |
| 20260906092530 | 63 | 0 | 0.0 | 0.0 | 0.00 | 0.00 | 0.00 | 97 | 1019.6 |
| 20260906092034 | 63 | 0 | 0.0 | 0.0 | 0.00 | 0.00 | 0.00 | 97 | 1019.6 |
| 20260906091554 | 63 | 0 | 0.0 | 0.0 | 0.00 | 0.00 | 0.00 | 97 | 1019.7 |
| 20260906091033 | 63 | 0 | 0.0 | 0.0 | 0.00 | 0.00 | 0.00 | 97 | 1019.7 |
| 20260906090528 | 63 | 0 | 0.0 | 0.0 | 0.00 | 0.00 | 0.00 | 97 | 1019.7 |
| 20260906090114 | 63 | 0 | 0.0 | 0.0 | 0.00 | 0.00 | 0.00 | 97 | 1019.6 |
| 20260906085530 | 63 | 0 | 0.0 | 0.0 | 0.00 | 0.00 | 0.00 | 97 | 1019.7 |
| 20260906085028 | 63 | 0 | 0.0 | 0.0 | 0.00 | 0.00 | 0.00 | 97 | 1019.8 |
| 20260906084555 | 63 | 0 | 0.0 | 0.0 | 0.00 | 0.00 | 0.00 | 97 | 1019.7 |
| 20260906084030 | 63 | 0 | 0.0 | 0.0 | 0.00 | 0.00 | 0.00 | 97 | 1019.8 |
| 20260906083531 | 63 | 0 | 0.0 | 0.0 | 0.00 | 0.00 | 0.00 | 97 | 1019.8 |
| 20260906083047 | 63 | 0 | 0.0 | 0.0 | 0.00 | 0.00 | 0.00 | 97 | 1019.7 |
| 20260906082527 | 63 | 0 | 0.0 | 0.0 | 0.00 | 0.00 | 0.00 | 97 | 1019.5 |
| 20260906082033 | 63 | 0 | 0.0 | 0.0 | 0.00 | 0.00 | 0.00 | 97 | 1019.4 |
| 20260906081558 | 63 | 0 | 0.0 | 0.0 | 0.00 | 0.00 | 0.00 | 97 | 1019.5 |
| 20260906081029 | 63 | 0 | 0.0 | 0.0 | 0.00 | 0.00 | 0.00 | 97 | 1019.6 |
| 20260906080529 | 63 | 0 | 0.0 | 0.0 | 0.00 | 0.00 | 0.00 | 97 | 1019.5 |
| 20260906080122 | 63 | 0 | 0.0 | 0.0 | 0.00 | 0.00 | 0.00 | 97 | 1019.4 |
| 20260906075529 | 63 | 0 | 0.0 | 0.0 | 0.00 | 0.00 | 0.00 | 97 | 1019.6 |
| 20260906075029 | 64 | 0 | 0.0 | 0.0 | 0.00 | 0.00 | 0.00 | 97 | 1019.5 |
| 20260906074607 | 64 | 0 | 0.0 | 0.0 | 0.00 | 0.00 | 0.00 | 97 | 1019.6 |
| 20260906074030 | 64 | 0 | 0.0 | 0.0 | 0.00 | 0.00 | 0.00 | 97 | 1019.6 |
| 20260906073530 | 64 | 0 | 0.0 | 0.0 | 0.00 | 0.00 | 0.00 | 97 | 1019.4 |
| 20260906073104 | 64 | 0 | 0.0 | 0.0 | 0.00 | 0.00 | 0.00 | 97 | 1019.5 |
| 20260906072530 | 64 | 0 | 0.0 | 0.0 | 0.00 | 0.00 | 0.00 | 97 | 1019.5 |
| 20260906072030 | 64 | 0 | 0.0 | 0.0 | 0.00 | 0.00 | 0.00 | 96 | 1019.4 |
| 20260906071559 | 64 | 0 | 0.0 | 0.0 | 0.00 | 0.00 | 0.00 | 96 | 1019.6 |
| 20260906071030 | 64 | 0 | 0.0 | 0.0 | 0.00 | 0.00 | 0.00 | 96 | 1019.6 |
| 20260906070530 | 64 | 0 | 0.0 | 0.0 | 0.00 | 0.00 | 0.00 | 96 | 1019.5 |
| 20260906070058 | 64 | 0 | 0.0 | 0.0 | 0.00 | 0.00 | 0.00 | 96 | 1019.6 |
| 20260906065533 | 64 | 0 | 0.0 | 0.0 | 0.00 | 0.00 | 0.00 | 96 | 1019.5 |
| 20260906065031 | 64 | 0 | 0.0 | 0.0 | 0.00 | 0.00 | 0.00 | 96 | 1019.5 |
| 20260906064555 | 64 | 0 | 0.0 | 0.0 | 0.00 | 0.00 | 0.00 | 96 | 1019.6 |
| 20260906064029 | 64 | 0 | 0.0 | 0.0 | 0.00 | 0.00 | 0.00 | 96 | 1019.7 |
| 20260906063530 | 64 | 0 | 0.0 | 0.0 | 0.00 | 0.00 | 0.00 | 96 | 1019.7 |
| 20260906063052 | 64 | 0 | 0.0 | 0.0 | 0.00 | 0.00 | 0.00 | 96 | 1019.7 |
| 20260906062530 | 64 | 0 | 0.0 | 0.0 | 0.00 | 0.00 | 0.00 | 96 | 1019.8 |
| 20260906062030 | 64 | 0 | 0.0 | 0.0 | 0.00 | 0.00 | 0.00 | 96 | 1019.9 |
| 20260906061605 | 64 | 0 | 0.0 | 0.0 | 0.00 | 0.00 | 0.00 | 96 | 1019.8 |
| 20260906061029 | 64 | 0 | 0.0 | 0.0 | 0.00 | 0.00 | 0.00 | 96 | 1019.9 |
| 20260906060532 | 64 | 0 | 0.0 | 0.0 | 0.00 | 0.00 | 0.00 | 96 | 1019.8 |
| 20260906060059 | 65 | 0 | 0.0 | 0.0 | 0.00 | 0.00 | 0.00 | 96 | 1019.8 |
| 20260906055532 | 65 | 0 | 0.0 | 0.0 | 0.00 | 0.00 | 0.00 | 96 | 1019.8 |
| 20260906055030 | 65 | 0 | 0.0 | 0.0 | 0.00 | 0.00 | 0.00 | 96 | 1019.8 |
| 20260906054555 | 65 | 0 | 0.0 | 0.0 | 0.00 | 0.00 | 0.00 | 96 | 1019.7 |
| 20260906054030 | 65 | 0 | 0.0 | 1.7 | 0.00 | 0.00 | 0.00 | 96 | 1019.6 |
| 20260906053531 | 65 | 0 | 0.0 | 1.7 | 0.00 | 0.00 | 0.00 | 96 | 1019.6 |
| 20260906053049 | 65 | 0 | 0.0 | 2.6 | 0.00 | 0.00 | 0.00 | 96 | 1019.4 |
| 20260906052535 | 65 | 0 | 0.0 | 2.6 | 0.00 | 0.00 | 0.00 | 96 | 1019.5 |
| 20260906052031 | 65 | 15 | 0.0 | 0.9 | 0.00 | 0.00 | 0.00 | 96 | 1019.6 |
| 20260906051557 | 65 | 0 | 0.0 | 2.6 | 0.00 | 0.00 | 0.00 | 96 | 1019.6 |
| 20260906051033 | 65 | 0 | 0.0 | 2.6 | 0.00 | 0.00 | 0.00 | 95 | 1019.6 |
| 20260906050530 | 65 | 0 | 0.0 | 2.6 | 0.00 | 0.00 | 0.00 | 95 | 1019.6 |
| 20260906050105 | 65 | 0 | 0.0 | 0.0 | 0.00 | 0.00 | 0.00 | 95 | 1019.6 |
| 20260906045529 | 65 | 0 | 0.0 | 0.0 | 0.00 | 0.00 | 0.00 | 95 | 1019.3 |
| 20260906045030 | 65 | 0 | 0.0 | 0.0 | 0.00 | 0.00 | 0.00 | 95 | 1019.2 |
| 20260906044554 | 65 | 0 | 0.0 | 0.0 | 0.00 | 0.00 | 0.00 | 95 | 1019.1 |
| 20260906044031 | 65 | 0 | 0.0 | 0.0 | 0.00 | 0.00 | 0.00 | 95 | 1019.1 |
| 20260906043532 | 65 | 0 | 0.0 | 0.0 | 0.00 | 0.00 | 0.00 | 95 | 1019.3 |
| 20260906043056 | 66 | 0 | 0.0 | 0.9 | 0.00 | 0.00 | 0.00 | 95 | 1019.1 |
| 20260906042529 | 66 | 0 | 0.0 | 0.9 | 0.00 | 0.00 | 0.00 | 95 | 1019.0 |
| 20260906042030 | 66 | 0 | 0.0 | 4.3 | 0.00 | 0.00 | 0.00 | 95 | 1019.0 |
| 20260906041548 | 66 | 0 | 0.0 | 4.3 | 0.00 | 0.00 | 0.00 | 95 | 1018.9 |
| 20260906041030 | 66 | 0 | 0.0 | 4.3 | 0.00 | 0.00 | 0.00 | 95 | 1018.9 |
| 20260906040529 | 66 | 0 | 0.0 | 2.6 | 0.00 | 0.00 | 0.00 | 95 | 1018.8 |
| 20260906040059 | 66 | 0 | 0.0 | 3.5 | 0.00 | 0.00 | 0.00 | 94 | 1018.8 |
| 20260906035531 | 66 | 0 | 0.9 | 5.2 | 0.00 | 0.00 | 0.00 | 94 | 1018.9 |
| 20260906035029 | 66 | 0 | 0.9 | 5.2 | 0.00 | 0.00 | 0.00 | 94 | 1018.9 |
| 20260906034613 | 66 | 10 | 0.9 | 5.2 | 0.00 | 0.00 | 0.00 | 94 | 1018.8 |
| 20260906034031 | 66 | 0 | 0.0 | 3.5 | 0.00 | 0.00 | 0.00 | 94 | 1018.7 |
| 20260906033530 | 66 | 63 | 0.0 | 3.5 | 0.00 | 0.00 | 0.00 | 94 | 1018.7 |
| 20260906033046 | 67 | 68 | 0.0 | 2.6 | 0.00 | 0.00 | 0.00 | 94 | 1018.6 |
| 20260906032529 | 67 | 82 | 0.0 | 1.7 | 0.00 | 0.00 | 0.00 | 94 | 1018.6 |
| 20260906032030 | 67 | 0 | 0.0 | 1.7 | 0.00 | 0.00 | 0.00 | 94 | 1018.5 |
| 20260906031557 | 67 | 83 | 0.0 | 1.7 | 0.00 | 0.00 | 0.00 | 94 | 1018.6 |
| 20260906031029 | 67 | 83 | 0.0 | 1.7 | 0.00 | 0.00 | 0.00 | 94 | 1018.6 |
| 20260906030533 | 67 | 83 | 0.0 | 2.6 | 0.00 | 0.00 | 0.00 | 94 | 1018.5 |
| 20260906030057 | 67 | 0 | 0.0 | 2.6 | 0.00 | 0.00 | 0.00 | 93 | 1018.5 |
| 20260906025530 | 67 | 0 | 0.0 | 2.6 | 0.00 | 0.00 | 0.00 | 93 | 1018.5 |
| 20260906025030 | 67 | 0 | 0.0 | 2.6 | 0.00 | 0.00 | 0.00 | 93 | 1018.4 |
| 20260906024550 | 68 | 0 | 0.0 | 2.6 | 0.00 | 0.00 | 0.00 | 93 | 1018.3 |
| 20260906024030 | 68 | 0 | 0.0 | 2.6 | 0.00 | 0.00 | 0.00 | 93 | 1018.4 |
| 20260906023530 | 68 | 0 | 0.0 | 2.6 | 0.00 | 0.00 | 0.00 | 93 | 1018.4 |
| 20260906023045 | 68 | 0 | 0.0 | 1.7 | 0.00 | 0.00 | 0.00 | 92 | 1018.4 |
| 20260906022532 | 68 | 0 | 0.0 | 2.6 | 0.00 | 0.00 | 0.00 | 92 | 1018.4 |
| 20260906022030 | 68 | 105 | 0.0 | 2.6 | 0.00 | 0.00 | 0.00 | 92 | 1018.4 |
| 20260906021554 | 69 | 105 | 0.0 | 2.6 | 0.00 | 0.00 | 0.00 | 92 | 1018.5 |
| 20260906021029 | 69 | 0 | 0.0 | 3.5 | 0.00 | 0.00 | 0.00 | 91 | 1018.4 |
| 20260906020529 | 69 | 98 | 0.9 | 3.5 | 0.00 | 0.00 | 0.00 | 91 | 1018.3 |
| 20260906020100 | 69 | 0 | 0.0 | 2.6 | 0.00 | 0.00 | 0.00 | 91 | 1018.2 |
| 20260906015532 | 69 | 0 | 0.0 | 2.6 | 0.00 | 0.00 | 0.00 | 91 | 1018.2 |
| 20260906015031 | 69 | 0 | 0.0 | 2.6 | 0.00 | 0.00 | 0.00 | 91 | 1018.2 |
| 20260906014550 | 69 | 0 | 0.0 | 5.2 | 0.00 | 0.00 | 0.00 | 91 | 1018.2 |
| 20260906014032 | 70 | 28 | 0.9 | 5.2 | 0.00 | 0.00 | 0.00 | 91 | 1018.3 |
| 20260906013534 | 70 | 0 | 1.7 | 5.2 | 0.00 | 0.00 | 0.00 | 91 | 1018.1 |
| 20260906013102 | 70 | 84 | 0.9 | 6.1 | 0.00 | 0.00 | 0.00 | 91 | 1018.2 |
| 20260906012532 | 70 | 89 | 0.9 | 6.1 | 0.00 | 0.00 | 0.00 | 91 | 1018.4 |
| 20260906012033 | 70 | 105 | 1.7 | 6.1 | 0.00 | 0.00 | 0.00 | 91 | 1018.4 |
| 20260906011559 | 70 | 79 | 1.7 | 6.1 | 0.00 | 0.00 | 0.00 | 91 | 1018.3 |
| 20260906011031 | 70 | 126 | 0.9 | 5.2 | 0.00 | 0.00 | 0.00 | 90 | 1018.4 |
| 20260906010532 | 70 | 78 | 1.7 | 3.5 | 0.00 | 0.00 | 0.00 | 91 | 1018.4 |
| 20260906010056 | 70 | 0 | 0.9 | 3.5 | 0.00 | 0.00 | 0.00 | 91 | 1018.3 |
| 20260906005531 | 70 | 155 | 0.9 | 3.5 | 0.00 | 0.00 | 0.00 | 90 | 1018.5 |
| 20260906005033 | 70 | 175 | 0.9 | 6.1 | 0.00 | 0.00 | 0.00 | 90 | 1018.5 |
| 20260906004546 | 70 | 360 | 0.9 | 6.1 | 0.00 | 0.00 | 0.00 | 90 | 1018.4 |
| 20260906004032 | 70 | 101 | 1.7 | 4.3 | 0.00 | 0.00 | 0.00 | 90 | 1018.4 |
| 20260906003532 | 70 | 0 | 0.9 | 8.7 | 0.00 | 0.00 | 0.00 | 90 | 1018.3 |
| 20260906003056 | 71 | 0 | 0.9 | 8.7 | 0.00 | 0.00 | 0.00 | 90 | 1018.1 |
| 20260906002531 | 71 | 113 | 1.7 | 6.1 | 0.00 | 0.00 | 0.00 | 89 | 1018.2 |
| 20260906002034 | 71 | 67 | 0.0 | 8.7 | 0.00 | 0.00 | 0.00 | 89 | 1018.2 |
| 20260906001555 | 71 | 57 | 0.9 | 8.7 | 0.00 | 0.00 | 0.00 | 89 | 1018.3 |
| 20260906001034 | 71 | 82 | 1.7 | 8.7 | 0.00 | 0.00 | 0.00 | 89 | 1018.2 |
| 20260906000532 | 71 | 150 | 1.7 | 6.1 | 0.00 | 0.00 | 0.00 | 89 | 1018.1 |
| 20260906000104 | 71 | 343 | 0.9 | 5.2 | 0.00 | 0.00 | 0.00 | 89 | 1018.1 |
| 20260905235533 | 72 | 88 | 1.7 | 7.8 | 0.00 | 0.00 | 0.00 | 88 | 1018.1 |
| 20260905235033 | 72 | 49 | 1.7 | 7.8 | 0.00 | 0.00 | 0.00 | 88 | 1018.1 |
| 20260905234606 | 72 | 95 | 1.7 | 7.8 | 0.00 | 0.00 | 0.00 | 87 | 1018.1 |
| 20260905234032 | 72 | 91 | 2.6 | 7.8 | 0.00 | 0.00 | 0.00 | 87 | 1018.0 |
| 20260905233534 | 73 | 223 | 1.7 | 7.8 | 0.00 | 0.00 | 0.00 | 87 | 1017.9 |
| 20260905233058 | 73 | 119 | 1.7 | 8.7 | 0.00 | 0.00 | 0.00 | 86 | 1018.0 |
| 20260905232532 | 73 | 115 | 1.7 | 8.7 | 0.00 | 0.00 | 0.00 | 86 | 1017.8 |
| 20260905232032 | 74 | 183 | 2.6 | 9.6 | 0.00 | 0.00 | 0.00 | 85 | 1017.9 |
| 20260905231555 | 74 | 180 | 1.7 | 9.6 | 0.00 | 0.00 | 0.00 | 85 | 1018.0 |
| 20260905231033 | 74 | 53 | 1.7 | 8.7 | 0.00 | 0.00 | 0.00 | 85 | 1018.0 |
| 20260905230533 | 75 | 138 | 1.7 | 8.7 | 0.00 | 0.00 | 0.00 | 84 | 1018.0 |
| 20260905230047 | 75 | 32 | 1.7 | 8.7 | 0.00 | 0.00 | 0.00 | 84 | 1017.8 |
| 20260905225530 | 75 | 315 | 1.7 | 10.4 | 0.00 | 0.00 | 0.00 | 84 | 1017.8 |
| 20260905225029 | 76 | 352 | 2.6 | 10.4 | 0.00 | 0.00 | 0.00 | 83 | 1017.7 |
| 20260905224605 | 76 | 121 | 1.7 | 10.4 | 0.00 | 0.00 | 0.00 | 82 | 1017.6 |
| 20260905224030 | 77 | 69 | 2.6 | 10.4 | 0.00 | 0.00 | 0.00 | 81 | 1017.5 |
| 20260905223529 | 77 | 342 | 2.6 | 7.8 | 0.00 | 0.00 | 0.00 | 81 | 1017.5 |
| 20260905223057 | 77 | 46 | 2.6 | 7.8 | 0.00 | 0.00 | 0.00 | 82 | 1017.5 |
| 20260905222531 | 77 | 245 | 2.6 | 7.0 | 0.00 | 0.00 | 0.00 | 81 | 1017.5 |
| 20260905222032 | 78 | 32 | 1.7 | 7.0 | 0.00 | 0.00 | 0.00 | 81 | 1017.6 |
| 20260905221553 | 78 | 76 | 2.6 | 7.0 | 0.00 | 0.00 | 0.00 | 81 | 1017.4 |
| 20260905221030 | 78 | 60 | 1.7 | 7.0 | 0.00 | 0.00 | 0.00 | 81 | 1017.3 |
| 20260905220529 | 78 | 292 | 1.7 | 8.7 | 0.00 | 0.00 | 0.00 | 81 | 1017.4 |
| 20260905220051 | 78 | 78 | 3.5 | 8.7 | 0.00 | 0.00 | 0.00 | 81 | 1017.5 |
| 20260905215530 | 79 | 100 | 1.7 | 7.0 | 0.00 | 0.00 | 0.00 | 80 | 1017.4 |
| 20260905215030 | 79 | 259 | 1.7 | 7.0 | 0.00 | 0.00 | 0.00 | 80 | 1017.4 |
| 20260905214555 | 79 | 313 | 1.7 | 7.0 | 0.00 | 0.00 | 0.00 | 81 | 1017.2 |
| 20260905214029 | 79 | 0 | 2.6 | 7.0 | 0.00 | 0.00 | 0.00 | 80 | 1017.2 |
| 20260905213530 | 79 | 101 | 1.7 | 8.7 | 0.00 | 0.00 | 0.00 | 80 | 1017.1 |
| 20260905213054 | 80 | 325 | 1.7 | 9.6 | 0.00 | 0.00 | 0.00 | 80 | 1017.1 |
| 20260905212530 | 79 | 81 | 0.9 | 9.6 | 0.00 | 0.00 | 0.00 | 82 | 1017.0 |
| 20260905212029 | 80 | 239 | 1.7 | 7.0 | 0.00 | 0.00 | 0.00 | 81 | 1016.8 |
| 20260905211546 | 80 | 317 | 0.9 | 8.7 | 0.00 | 0.00 | 0.00 | 80 | 1016.7 |
| 20260905211031 | 81 | 355 | 2.6 | 8.7 | 0.00 | 0.00 | 0.00 | 78 | 1016.6 |
| 20260905210529 | 82 | 51 | 2.6 | 7.8 | 0.00 | 0.00 | 0.00 | 77 | 1016.7 |
| 20260905210106 | 82 | 218 | 0.9 | 7.0 | 0.00 | 0.00 | 0.00 | 78 | 1016.5 |
| 20260905205529 | 81 | 103 | 0.9 | 8.7 | 0.00 | 0.00 | 0.00 | 77 | 1016.4 |
| 20260905205030 | 81 | 121 | 0.9 | 8.7 | 0.00 | 0.00 | 0.00 | 78 | 1016.6 |
| 20260905204557 | 82 | 125 | 1.7 | 4.3 | 0.00 | 0.00 | 0.00 | 77 | 1016.5 |
| 20260905204029 | 81 | 19 | 1.7 | 4.3 | 0.00 | 0.00 | 0.00 | 76 | 1016.7 |
| 20260905203531 | 81 | 39 | 0.9 | 4.3 | 0.00 | 0.00 | 0.00 | 78 | 1016.7 |
| 20260905203108 | 81 | 106 | 0.9 | 5.2 | 0.00 | 0.00 | 0.00 | 78 | 1016.6 |
| 20260905202530 | 82 | 100 | 0.9 | 5.2 | 0.00 | 0.00 | 0.00 | 77 | 1016.7 |
| 20260905202029 | 82 | 0 | 1.7 | 7.8 | 0.00 | 0.00 | 0.00 | 77 | 1016.7 |
| 20260905201558 | 82 | 263 | 2.6 | 7.8 | 0.00 | 0.00 | 0.00 | 77 | 1016.6 |
| 20260905201030 | 82 | 30 | 1.7 | 4.3 | 0.00 | 0.00 | 0.00 | 76 | 1016.6 |
| 20260905200530 | 82 | 277 | 0.9 | 3.5 | 0.00 | 0.00 | 0.00 | 75 | 1016.7 |
| 20260905200105 | 83 | 301 | 0.9 | 4.3 | 0.00 | 0.00 | 0.00 | 74 | 1016.7 |
| 20260905195529 | 83 | 327 | 0.9 | 4.3 | 0.00 | 0.00 | 0.00 | 78 | 1016.8 |
| 20260905195032 | 82 | 325 | 0.9 | 5.2 | 0.00 | 0.00 | 0.00 | 77 | 1016.8 |
| 20260905194553 | 82 | 296 | 0.0 | 5.2 | 0.00 | 0.00 | 0.00 | 77 | 1016.9 |
| 20260905194030 | 82 | 61 | 0.9 | 4.3 | 0.00 | 0.00 | 0.00 | 76 | 1016.9 |
| 20260905193530 | 82 | 0 | 1.7 | 3.5 | 0.00 | 0.00 | 0.00 | 77 | 1016.9 |
| 20260905193057 | 81 | 125 | 0.0 | 2.6 | 0.00 | 0.00 | 0.00 | 80 | 1017.0 |
| 20260905192529 | 81 | 0 | 0.0 | 3.5 | 0.00 | 0.00 | 0.00 | 79 | 1017.1 |
| 20260905192030 | 81 | 316 | 0.0 | 4.3 | 0.00 | 0.00 | 0.00 | 80 | 1017.2 |
| 20260905191558 | 81 | 297 | 0.9 | 4.3 | 0.00 | 0.00 | 0.00 | 80 | 1017.2 |
| 20260905191030 | 80 | 288 | 0.9 | 4.3 | 0.00 | 0.00 | 0.00 | 82 | 1017.3 |
| 20260905190529 | 80 | 0 | 0.0 | 5.2 | 0.00 | 0.00 | 0.00 | 83 | 1017.1 |
| 20260905190056 | 80 | 0 | 1.7 | 6.1 | 0.00 | 0.00 | 0.00 | 80 | 1017.2 |
| 20260905185529 | 80 | 331 | 1.7 | 6.1 | 0.00 | 0.00 | 0.00 | 81 | 1017.2 |
| 20260905185031 | 79 | 173 | 1.7 | 4.3 | 0.00 | 0.00 | 0.00 | 82 | 1017.4 |
| 20260905184601 | 79 | 45 | 0.9 | 3.5 | 0.00 | 0.00 | 0.00 | 82 | 1017.5 |
| 20260905184031 | 79 | 65 | 0.9 | 3.5 | 0.00 | 0.00 | 0.00 | 83 | 1017.5 |
| 20260905183529 | 79 | 0 | 0.0 | 3.5 | 0.00 | 0.00 | 0.00 | 86 | 1017.5 |
| 20260905183047 | 78 | 0 | 0.9 | 3.5 | 0.00 | 0.00 | 0.00 | 86 | 1017.5 |
| 20260905182531 | 78 | 344 | 0.9 | 3.5 | 0.00 | 0.00 | 0.00 | 85 | 1017.5 |
| 20260905182030 | 78 | 69 | 0.9 | 3.5 | 0.00 | 0.00 | 0.00 | 86 | 1017.6 |
| 20260905181559 | 77 | 37 | 0.0 | 4.3 | 0.00 | 0.00 | 0.00 | 85 | 1017.6 |
| 20260905181029 | 77 | 329 | 0.9 | 5.2 | 0.00 | 0.00 | 0.00 | 85 | 1017.5 |
| 20260905180529 | 77 | 138 | 1.7 | 5.2 | 0.00 | 0.00 | 0.00 | 85 | 1017.4 |
| 20260905180056 | 77 | 331 | 0.9 | 3.5 | 0.00 | 0.00 | 0.00 | 86 | 1017.4 |
| 20260905175530 | 77 | 0 | 0.0 | 3.5 | 0.00 | 0.00 | 0.00 | 86 | 1017.6 |
| 20260905175030 | 76 | 268 | 0.0 | 5.2 | 0.00 | 0.00 | 0.00 | 87 | 1017.6 |
| 20260905174551 | 77 | 343 | 0.0 | 5.2 | 0.00 | 0.00 | 0.00 | 87 | 1017.5 |
| 20260905174031 | 77 | 350 | 0.9 | 4.3 | 0.00 | 0.00 | 0.00 | 87 | 1017.5 |
| 20260905173529 | 77 | 76 | 0.0 | 4.3 | 0.00 | 0.00 | 0.00 | 87 | 1017.5 |
| 20260905173056 | 76 | 76 | 0.9 | 4.3 | 0.00 | 0.00 | 0.00 | 88 | 1017.5 |
| 20260905172530 | 76 | 0 | 0.9 | 3.5 | 0.00 | 0.00 | 0.00 | 88 | 1017.6 |
| 20260905172030 | 76 | 298 | 0.9 | 3.5 | 0.00 | 0.00 | 0.00 | 88 | 1017.6 |
| 20260905171633 | 76 | 113 | 1.7 | 3.5 | 0.00 | 0.00 | 0.00 | 88 | 1017.6 |
| 20260905171034 | 75 | 0 | 0.9 | 3.5 | 0.00 | 0.00 | 0.00 | 89 | 1017.7 |
| 20260905170529 | 75 | 0 | 0.0 | 2.6 | 0.00 | 0.00 | 0.00 | 90 | 1017.6 |
| 20260905170104 | 75 | 0 | 0.0 | 2.6 | 0.00 | 0.00 | 0.00 | 89 | 1017.7 |
| 20260905165534 | 75 | 0 | 0.0 | 2.6 | 0.00 | 0.00 | 0.00 | 89 | 1017.8 |
| 20260905165031 | 75 | 0 | 0.0 | 1.7 | 0.00 | 0.00 | 0.00 | 91 | 1018.0 |
| 20260905164552 | 74 | 0 | 0.0 | 1.7 | 0.00 | 0.00 | 0.00 | 91 | 1017.9 |
| 20260905164030 | 74 | 310 | 0.0 | 4.3 | 0.00 | 0.00 | 0.00 | 91 | 1017.8 |
| 20260905163533 | 74 | 305 | 0.9 | 4.3 | 0.00 | 0.00 | 0.00 | 91 | 1017.9 |
| 20260905163100 | 74 | 0 | 0.0 | 3.5 | 0.00 | 0.00 | 0.00 | 91 | 1017.8 |
| 20260905162529 | 74 | 0 | 0.0 | 5.2 | 0.00 | 0.00 | 0.00 | 91 | 1017.8 |
| 20260905162029 | 74 | 99 | 0.9 | 5.2 | 0.00 | 0.00 | 0.00 | 91 | 1017.9 |
| 20260905161558 | 74 | 50 | 0.9 | 5.2 | 0.00 | 0.00 | 0.00 | 92 | 1017.8 |
| 20260905161032 | 74 | 108 | 0.9 | 7.8 | 0.00 | 0.00 | 0.00 | 92 | 1017.8 |
| 20260905160528 | 74 | 70 | 0.9 | 7.8 | 0.00 | 0.00 | 0.00 | 92 | 1017.9 |
| 20260905160107 | 74 | 19 | 1.7 | 5.2 | 0.00 | 0.00 | 0.00 | 92 | 1017.9 |
| 20260905155530 | 74 | 333 | 0.0 | 5.2 | 0.00 | 0.00 | 0.00 | 92 | 1017.8 |
| 20260905155032 | 74 | 0 | 0.0 | 4.3 | 0.00 | 0.00 | 0.00 | 92 | 1017.7 |
| 20260905154603 | 74 | 342 | 0.9 | 4.3 | 0.00 | 0.00 | 0.00 | 92 | 1017.7 |
| 20260905154029 | 74 | 324 | 1.7 | 5.2 | 0.00 | 0.00 | 0.00 | 92 | 1017.6 |
| 20260905153530 | 74 | 94 | 0.9 | 5.2 | 0.00 | 0.00 | 0.00 | 92 | 1017.6 |
| 20260905153101 | 74 | 0 | 0.9 | 5.2 | 0.00 | 0.00 | 0.00 | 92 | 1017.4 |
| 20260905152527 | 74 | 283 | 1.7 | 5.2 | 0.00 | 0.00 | 0.00 | 92 | 1017.4 |
| 20260905152030 | 74 | 0 | 0.9 | 3.5 | 0.00 | 0.00 | 0.00 | 92 | 1017.6 |
| 20260905151558 | 74 | 0 | 0.9 | 4.3 | 0.00 | 0.00 | 0.00 | 92 | 1017.5 |
| 20260905151029 | 74 | 0 | 0.0 | 5.2 | 0.00 | 0.00 | 0.00 | 93 | 1017.3 |
| 20260905150531 | 73 | 12 | 0.9 | 5.2 | 0.00 | 0.00 | 0.00 | 93 | 1017.2 |
| 20260905150103 | 73 | 5 | 0.0 | 5.2 | 0.00 | 0.00 | 0.00 | 93 | 1017.2 |
| 20260905145534 | 73 | 5 | 0.9 | 6.1 | 0.00 | 0.01 | 0.00 | 93 | 1017.1 |
| 20260905145030 | 73 | 335 | 0.9 | 6.1 | 0.00 | 0.01 | 0.00 | 94 | 1017.2 |
| 20260905144550 | 73 | 0 | 1.7 | 6.1 | 0.00 | 0.01 | 0.00 | 93 | 1017.0 |
| 20260905144029 | 73 | 111 | 0.9 | 3.5 | 0.00 | 0.01 | 0.00 | 94 | 1017.0 |
| 20260905143532 | 73 | 154 | 0.9 | 3.5 | 0.00 | 0.01 | 0.00 | 94 | 1017.1 |
| 20260905143105 | 73 | 0 | 0.9 | 3.5 | 0.00 | 0.01 | 0.00 | 94 | 1017.1 |
| 20260905142532 | 73 | 46 | 0.0 | 4.3 | 0.00 | 0.01 | 0.00 | 94 | 1017.0 |
| 20260905142029 | 73 | 0 | 0.9 | 4.3 | 0.00 | 0.01 | 0.00 | 95 | 1017.0 |
| 20260905141556 | 72 | 342 | 0.9 | 3.5 | 0.00 | 0.01 | 0.00 | 95 | 1016.9 |
| 20260905141030 | 72 | 29 | 0.9 | 3.5 | 0.00 | 0.01 | 0.00 | 96 | 1016.7 |
| 20260905140533 | 72 | 24 | 0.0 | 3.5 | 0.00 | 0.01 | 0.00 | 96 | 1016.8 |
| 20260905140057 | 72 | 0 | 0.9 | 3.5 | 0.00 | 0.01 | 0.00 | 96 | 1016.8 |
| 20260905135530 | 72 | 55 | 0.0 | 3.5 | 0.00 | 0.10 | 0.00 | 96 | 1016.8 |
| 20260905135031 | 71 | 0 | 0.9 | 3.5 | 0.00 | 0.10 | 0.00 | 96 | 1016.6 |
| 20260905134550 | 71 | 0 | 0.9 | 3.5 | 0.00 | 0.10 | 0.00 | 96 | 1016.7 |
| 20260905134031 | 71 | 54 | 0.0 | 4.3 | 0.00 | 0.10 | 0.00 | 97 | 1016.7 |
| 20260905133530 | 71 | 0 | 0.9 | 4.3 | 0.00 | 0.10 | 0.00 | 97 | 1016.8 |
| 20260905133047 | 71 | 11 | 0.0 | 4.3 | 0.00 | 0.10 | 0.00 | 97 | 1016.7 |
| 20260905132530 | 71 | 223 | 0.9 | 4.3 | 0.00 | 0.10 | 0.00 | 97 | 1016.7 |
| 20260905132032 | 71 | 57 | 0.9 | 4.3 | 0.00 | 0.10 | 0.00 | 97 | 1016.8 |
| 20260905131552 | 71 | 251 | 0.9 | 4.3 | 0.00 | 0.10 | 0.00 | 97 | 1016.9 |
| 20260905131030 | 71 | 0 | 0.0 | 4.3 | 0.00 | 0.10 | 0.00 | 97 | 1017.2 |
| 20260905130535 | 70 | 351 | 0.0 | 3.5 | 0.00 | 0.10 | 0.00 | 97 | 1017.2 |
| 20260905130057 | 70 | 0 | 0.9 | 5.2 | 0.00 | 0.10 | 0.00 | 97 | 1017.1 |
| 20260905125532 | 70 | 84 | 0.9 | 5.2 | 0.00 | 0.13 | 0.00 | 97 | 1016.7 |
| 20260905125031 | 70 | 104 | 0.9 | 8.7 | 0.00 | 0.13 | 0.00 | 97 | 1016.5 |
| 20260905124559 | 70 | 0 | 0.9 | 8.7 | 0.00 | 0.13 | 0.00 | 97 | 1016.5 |
| 20260905124034 | 70 | 318 | 0.0 | 7.0 | 0.00 | 0.13 | 0.00 | 97 | 1016.4 |
| 20260905123530 | 70 | 98 | 0.9 | 7.0 | 0.00 | 0.13 | 0.00 | 97 | 1016.4 |
| 20260905123050 | 70 | 10 | 0.0 | 4.3 | 0.00 | 0.13 | 0.00 | 97 | 1016.3 |
| 20260905122531 | 70 | 25 | 0.9 | 4.3 | 0.00 | 0.13 | 0.00 | 97 | 1016.0 |
| 20260905122033 | 70 | 271 | 1.7 | 5.2 | 0.00 | 0.13 | 0.00 | 97 | 1016.1 |
| 20260905121557 | 70 | 0 | 0.0 | 5.2 | 0.00 | 0.13 | 0.00 | 97 | 1015.9 |
| 20260905121030 | 70 | 132 | 0.9 | 4.3 | 0.00 | 0.13 | 0.00 | 97 | 1015.9 |
| 20260905120530 | 69 | 0 | 0.0 | 3.5 | 0.00 | 0.13 | 0.00 | 97 | 1015.9 |
| 20260905120057 | 69 | 11 | 0.9 | 4.3 | 0.00 | 0.13 | 0.00 | 97 | 1015.9 |
| 20260905115529 | 69 | 39 | 0.9 | 5.2 | 0.00 | 0.13 | 0.00 | 97 | 1015.8 |
| 20260905115029 | 69 | 360 | 1.7 | 5.2 | 0.00 | 0.13 | 0.00 | 97 | 1015.6 |
| 20260905114604 | 69 | 43 | 0.9 | 4.3 | 0.00 | 0.13 | 0.00 | 97 | 1015.6 |
| 20260905114030 | 69 | 340 | 0.0 | 4.3 | 0.00 | 0.13 | 0.00 | 97 | 1015.5 |
| 20260905113530 | 69 | 0 | 0.0 | 5.2 | 0.00 | 0.13 | 0.00 | 97 | 1015.4 |